When you browse on this site, cookies collect data to enhance your experience and personalize the content and advertising you see.
Visit our Privacy Policy to learn more. By continuing to use the site, you agree to this use of cookies and data.
  • In Österreich
  • Länderverzeichnis
  • Für 7 Tage
  • Wassertemperatur
  • Satellitenkarten
  • Wetterkarte
  • News
  • Widgets
  • user-avatar
    Anmelden

    Stündliche Wetter Coon Rapids

    Heute, 25 Juni, Dienstag

    Zeit Temperatur Niederschläge Wind Luftdruck Luftfeuchtigkeit
    00:00 +17°C° 0 mm 2 m/S 730 mmHg 86%
    01:00 +16°C° 0 mm 2 m/S 730 mmHg 86%
    02:00 +16°C° 0 mm 2 m/S 730 mmHg 86%
    03:00 +16°C° 0 mm 3 m/S 730 mmHg 86%
    04:00 +16°C° 0 mm 3 m/S 730 mmHg 86%
    05:00 +17°C° 0 mm 3 m/S 730 mmHg 86%
    06:00 +17°C° 0 mm 3 m/S 731 mmHg 86%
    07:00 +19°C° 0 mm 4 m/S 731 mmHg 81%
    08:00 +20°C° 0 mm 4 m/S 731 mmHg 75%
    09:00 +22°C° 0 mm 4 m/S 732 mmHg 70%
    10:00 +23°C° 0 mm 4 m/S 732 mmHg 65%
    11:00 +26°C° 0 mm 5 m/S 732 mmHg 59%
    12:00 +27°C° 0 mm 6 m/S 732 mmHg 54%
    13:00 +27°C° 0 mm 6 m/S 732 mmHg 54%
    14:00 +27°C° 0 mm 6 m/S 733 mmHg 54%
    15:00 +27°C° 0 mm 6 m/S 733 mmHg 54%
    16:00 +27°C° 0 mm 5 m/S 733 mmHg 57%
    17:00 +26°C° 0 mm 5 m/S 733 mmHg 61%
    18:00 +25°C° 0 mm 4 m/S 733 mmHg 65%
    19:00 +23°C° 0 mm 4 m/S 734 mmHg 69%
    20:00 +21°C° 0 mm 4 m/S 734 mmHg 72%
    21:00 +20°C° 0 mm 3 m/S 735 mmHg 76%
    22:00 +19°C° 0 mm 3 m/S 735 mmHg 78%
    23:00 +19°C° 0 mm 3 m/S 735 mmHg 79%

    Morgen, 26 Juni, Mittwoch

    Zeit Temperatur Niederschläge Wind Luftdruck Luftfeuchtigkeit
    00:00 +18°C° 0 mm 2 m/S 735 mmHg 80%
    01:00 +17°C° 0 mm 2 m/S 735 mmHg 80%
    02:00 +17°C° 0 mm 2 m/S 736 mmHg 79%
    03:00 +17°C° 0 mm 2 m/S 736 mmHg 79%
    04:00 +17°C° 0 mm 2 m/S 736 mmHg 79%
    05:00 +18°C° 0 mm 1 m/S 737 mmHg 78%
    06:00 +19°C° 0 mm 1 m/S 737 mmHg 77%
    07:00 +20°C° 0 mm 2 m/S 737 mmHg 73%
    08:00 +23°C° 0 mm 2 m/S 738 mmHg 69%
    09:00 +25°C° 0 mm 3 m/S 738 mmHg 65%
    10:00 +24°C° 0.4 mm 3 m/S 738 mmHg 68%
    11:00 +24°C° 0.4 mm 3 m/S 738 mmHg 70%
    12:00 +23°C° 0.4 mm 2 m/S 738 mmHg 73%
    13:00 +24°C° 0.2 mm 2 m/S 738 mmHg 68%
    14:00 +26°C° 0.2 mm 1 m/S 738 mmHg 63%
    15:00 +27°C° 0.2 mm 1 m/S 738 mmHg 57%
    16:00 +27°C° 0 mm 1 m/S 738 mmHg 60%
    17:00 +27°C° 0 mm 2 m/S 738 mmHg 62%
    18:00 +27°C° 0 mm 2 m/S 738 mmHg 64%
    19:00 +26°C° 0 mm 2 m/S 738 mmHg 69%
    20:00 +25°C° 0 mm 2 m/S 738 mmHg 73%
    21:00 +23°C° 0 mm 2 m/S 738 mmHg 77%
    22:00 +23°C° 0.5 mm 2 m/S 738 mmHg 80%
    23:00 +23°C° 0.5 mm 2 m/S 738 mmHg 84%

    übermorgen, 27 Juni, Donnerstag

    Zeit Temperatur Niederschläge Wind Luftdruck Luftfeuchtigkeit
    00:00 +21°C° 0.5 mm 2 m/S 738 mmHg 87%
    01:00 +22°C° 0.6 mm 1 m/S 738 mmHg 89%
    02:00 +21°C° 0.6 mm 1 m/S 738 mmHg 91%
    03:00 +21°C° 0.6 mm 1 m/S 738 mmHg 93%
    04:00 +21°C° 0 mm 1 m/S 738 mmHg 93%
    05:00 +22°C° 0 mm 1 m/S 739 mmHg 94%
    06:00 +22°C° 0 mm 1 m/S 739 mmHg 94%
    07:00 +23°C° 0 mm 1 m/S 739 mmHg 90%
    08:00 +24°C° 0 mm 2 m/S 739 mmHg 86%
    09:00 +26°C° 0 mm 2 m/S 739 mmHg 82%
    10:00 +27°C° 0 mm 2 m/S 739 mmHg 79%
    11:00 +28°C° 0 mm 3 m/S 739 mmHg 77%
    12:00 +29°C° 0 mm 3 m/S 739 mmHg 74%
    13:00 +29°C° 0.4 mm 3 m/S 738 mmHg 75%
    14:00 +29°C° 0.4 mm 3 m/S 738 mmHg 76%
    15:00 +29°C° 0.4 mm 3 m/S 738 mmHg 77%
    16:00 +27°C° 1.3 mm 3 m/S 738 mmHg 78%
    17:00 +26°C° 1.3 mm 3 m/S 738 mmHg 79%
    18:00 +24°C° 1.3 mm 3 m/S 738 mmHg 80%
    19:00 +24°C° 0.1 mm 2 m/S 738 mmHg 80%
    20:00 +23°C° 0.1 mm 1 m/S 738 mmHg 81%
    21:00 +20°C° 0.1 mm 0 m/S 738 mmHg 81%
    22:00 +20°C° 0 mm 0 m/S 738 mmHg 83%
    23:00 +20°C° 0 mm 0 m/S 738 mmHg 84%

    28 Juni, Freitag

    Zeit Temperatur Niederschläge Wind Luftdruck Luftfeuchtigkeit
    00:00 +19°C° 0 mm 0 m/S 738 mmHg 86%
    01:00 +19°C° 0 mm 0 m/S 739 mmHg 86%
    02:00 +19°C° 0 mm 0 m/S 739 mmHg 87%
    03:00 +18°C° 0 mm 0 m/S 739 mmHg 88%
    04:00 +19°C° 0 mm 0 m/S 739 mmHg 88%
    05:00 +21°C° 0 mm 1 m/S 739 mmHg 87%
    06:00 +22°C° 0 mm 1 m/S 739 mmHg 87%
    07:00 +23°C° 0 mm 1 m/S 739 mmHg 82%
    08:00 +25°C° 0 mm 2 m/S 739 mmHg 77%
    09:00 +26°C° 0 mm 2 m/S 739 mmHg 72%
    10:00 +28°C° 0 mm 2 m/S 739 mmHg 67%
    11:00 +29°C° 0 mm 3 m/S 740 mmHg 62%
    12:00 +31°C° 0 mm 3 m/S 740 mmHg 57%
    13:00 +31°C° 0 mm 3 m/S 739 mmHg 56%
    14:00 +33°C° 0 mm 3 m/S 739 mmHg 56%
    15:00 +33°C° 0 mm 3 m/S 739 mmHg 55%
    16:00 +31°C° 0 mm 3 m/S 739 mmHg 61%
    17:00 +31°C° 0 mm 3 m/S 739 mmHg 67%
    18:00 +30°C° 0 mm 3 m/S 738 mmHg 72%
    19:00 +29°C° 0 mm 3 m/S 738 mmHg 77%
    20:00 +28°C° 0 mm 2 m/S 739 mmHg 82%
    21:00 +27°C° 0 mm 2 m/S 739 mmHg 87%
    22:00 +26°C° 0 mm 2 m/S 739 mmHg 88%
    23:00 +26°C° 0 mm 2 m/S 739 mmHg 90%

    29 Juni, Samstag

    Zeit Temperatur Niederschläge Wind Luftdruck Luftfeuchtigkeit
    00:00 +26°C° 0 mm 2 m/S 739 mmHg 91%
    01:00 +25°C° 0 mm 2 m/S 738 mmHg 92%
    02:00 +25°C° 0 mm 2 m/S 738 mmHg 92%
    03:00 +25°C° 0 mm 2 m/S 738 mmHg 93%
    04:00 +25°C° 0 mm 2 m/S 738 mmHg 92%
    05:00 +25°C° 0 mm 2 m/S 738 mmHg 92%
    06:00 +26°C° 0 mm 2 m/S 738 mmHg 91%
    07:00 +27°C° 0 mm 2 m/S 738 mmHg 88%
    08:00 +28°C° 0 mm 3 m/S 738 mmHg 85%
    09:00 +29°C° 0 mm 3 m/S 738 mmHg 82%
    10:00 +31°C° 0 mm 3 m/S 738 mmHg 76%
    11:00 +34°C° 0 mm 3 m/S 738 mmHg 70%
    12:00 +36°C° 0 mm 4 m/S 738 mmHg 64%
    13:00 +37°C° 0.1 mm 4 m/S 737 mmHg 60%
    14:00 +37°C° 0.1 mm 4 m/S 737 mmHg 57%
    15:00 +38°C° 0.1 mm 4 m/S 737 mmHg 53%
    16:00 +37°C° 0.1 mm 4 m/S 736 mmHg 58%
    17:00 +36°C° 0.1 mm 4 m/S 736 mmHg 62%
    18:00 +35°C° 0.1 mm 4 m/S 736 mmHg 66%
    19:00 +34°C° 0 mm 4 m/S 736 mmHg 68%
    20:00 +33°C° 0 mm 4 m/S 736 mmHg 70%
    21:00 +32°C° 0 mm 4 m/S 736 mmHg 72%
    22:00 +30°C° 0 mm 4 m/S 736 mmHg 74%
    23:00 +29°C° 0 mm 4 m/S 736 mmHg 77%

    30 Juni, Sonntag

    Zeit Temperatur Niederschläge Wind Luftdruck Luftfeuchtigkeit
    00:00 +29°C° 0 mm 4 m/S 736 mmHg 79%
    01:00 +28°C° 0 mm 4 m/S 736 mmHg 81%
    02:00 +28°C° 0 mm 4 m/S 736 mmHg 82%
    03:00 +27°C° 0 mm 4 m/S 736 mmHg 84%
    04:00 +27°C° 0 mm 3 m/S 736 mmHg 84%
    05:00 +27°C° 0 mm 3 m/S 736 mmHg 84%
    06:00 +27°C° 0 mm 3 m/S 736 mmHg 84%
    07:00 +28°C° 0 mm 3 m/S 736 mmHg 81%
    08:00 +29°C° 0 mm 2 m/S 736 mmHg 77%
    09:00 +30°C° 0 mm 2 m/S 736 mmHg 73%
    10:00 +32°C° 0 mm 2 m/S 736 mmHg 68%
    11:00 +34°C° 0 mm 2 m/S 736 mmHg 64%
    12:00 +35°C° 0 mm 2 m/S 736 mmHg 59%
    13:00 +35°C° 0.1 mm 2 m/S 736 mmHg 59%
    14:00 +35°C° 0.1 mm 3 m/S 736 mmHg 59%
    15:00 +35°C° 0.1 mm 4 m/S 736 mmHg 59%
    16:00 +34°C° 0.3 mm 3 m/S 736 mmHg 61%
    17:00 +34°C° 0.3 mm 3 m/S 735 mmHg 63%
    18:00 +32°C° 0.3 mm 2 m/S 735 mmHg 65%
    19:00 +30°C° 0.2 mm 2 m/S 736 mmHg 67%
    20:00 +29°C° 0.2 mm 2 m/S 736 mmHg 70%
    21:00 +27°C° 0.2 mm 2 m/S 736 mmHg 72%
    22:00 +27°C° 0.2 mm 3 m/S 736 mmHg 68%
    23:00 +26°C° 0.2 mm 3 m/S 736 mmHg 64%
    Mehr zeigen